This demonstration page uses our WeatherBlox Daily Observations layout. Learn more.

Left ArrowRight Arrow

39.08367, -84.50855

Hourly Observations for November 21, 2015

Temp ( °F °C ) Dew Point ( °F °C ) Humidity (%) Winds ( mph kmh ) Pressure ( in mb ) Visibility ( mi km ) Precip ( " mm )
12:53 am 00:53 Clear 37 2.8 32 0 82 82 N 3 6 30.19 1023 10 16 0.00 0.00
1:53 am 01:53 Clear 36 2.2 31 -0.6 82 82 NE 5 7 30.17 1022 10 16 0.00 0.00
2:53 am 02:53 Clear 35 1.7 30 -1.1 82 82 NNE 6 9 30.16 1021 10 16 0.00 0.00
3:53 am 03:53 Clear 37 2.8 27 -2.8 67 67 NNE 6 9 30.14 1021 10 16 0.00 0.00
4:53 am 04:53 Clear 38 3.3 25 -3.9 60 60 NE 7 11 30.12 1020 10 16 0.00 0.00
5:53 am 05:53 Clear 37 2.8 25 -3.9 62 62 NE 6 9 30.10 1019 10 16 0.00 0.00
6:53 am 06:53 Clear 36 2.2 24 -4.4 62 62 NNE 6 9 30.07 1018 10 16 0.00 0.00
7:53 am 07:53 Sunny 35 1.7 24 -4.4 64 64 Calm 30.04 1017 10 16 0.00 0.00
8:53 am 08:53 Sunny 43 6.1 22 -5.6 43 43 Calm 30.01 1016 10 16 0.00 0.00
9:53 am 09:53 Sunny 46 7.8 22 -5.6 38 38 E 5 7 29.98 1015 10 16 0.00 0.00
10:53 am 10:53 Sunny 48 8.9 24 -4.4 39 39 S 10 17 29.93 1014 10 16 0.00 0.00
11:53 am 11:53 Sunny 49 9.4 29 -1.7 46 46 SSE 10 17 29.87 1012 10 16 0.00 0.00
12:53 pm 12:53 Mostly Cloudy 50 10 31 -0.6 48 48 S 9 15 29.81 1010 10 16 0.00 0.00
1:53 pm 13:53 Cloudy 49 9.4 34 1.1 56 56 S 5 7 29.80 1009 10 16 0.00 0.00
2:53 pm 14:53 Cloudy with Light Rain 49 9.4 41 5 74 74 WSW 14 22 29.80 1009 10 16 0.02 0.51
3:53 pm 15:53 Cloudy with Light Rain 44 6.7 44 6.7 100 100 W 22 35 29.84 1011 8 13 0.03 0.76
4:53 pm 16:53 Cloudy 41 5 N/A N/A W 22 35 29.88 1012 10 16 0.01 0.25
5:53 pm 17:53 Cloudy 41 5 N/A N/A WSW 20 31 29.92 1013 10 16 0.00 0.00
6:53 pm 18:53 Cloudy with Light Rain 39 4 N/A N/A WSW 21 33 29.96 1014 8 13 0.00 0.03
7:53 pm 19:53 Cloudy 38 3.3 32 0 79 79 W 16 26 30.01 1016 10 16 0.01 0.25
8:53 pm 20:53 Cloudy 38 3.3 30 -1.1 73 73 W 22 35 30.04 1017 10 16 0.00 0.00
9:46 pm 21:46 Cloudy 37 3 30 -1 75 75 W 14 22 30.06 1018 10 16 0.00 0.00
9:53 pm 21:53 Cloudy 37 2.8 30 -1.1 76 76 W 15 24 30.08 1019 10 16 0.00 0.00
10:19 pm 22:19 Cloudy 37 2.8 30 -1.1 76 76 W 12 19 30.09 1019 10 16 0.00 0.00
10:32 pm 22:32 Cloudy 37 2.8 30 -1.1 76 76 W 12 19 30.09 1019 10 16 0.00 0.00
10:53 pm 22:53 Cloudy 37 2.8 31 -0.6 79 79 W 14 22 30.11 1020 10 16 0.00 0.00
11:53 pm 23:53 Cloudy 36 2.2 31 -0.6 82 82 W 14 22 30.12 1020 10 16 0.00 0.03

Powered by AerisWeather